Погода в Мугалжаре

Погода в Мугалжаре : погода сейчас, прогноз погоды и архив. Всё, что Вы хотите узнать о погоде в Мугалжаре!

Хотите узнать прогноз погоды в Мугалжаре? Тогда Вам сюда: Погода в Мугалжаре

Поиск расширенной информации на нашем сайте:

Другие новости

Новости СМИ2

Главная страница сайта

Новости сайта

03.07.2017

Напоминаем, что на нашем специализированном сайте Метеоцентр.Азия вы можете получить высокодетализированные автоматические прогнозы погоды по пунктам России, СНГ и мира в авиационном формате (включающие направление и скорость ветра, видимость, явления погоды, количество и форму облачности, нижнюю и верхнюю границу облачности).

Рекомендуем: отзывы кровмаркет

Погода в Мугалжаре - сегодня

Время (UTC), дата Ветер
(°,м/с) 
Видим.   Явления Облачность Т
(°С)
Тd
(°С)
f(%) Тe
(°С)
Pmin
(гПа)
dP
(гПа)
Po
(мм)
O2
(г/м3)
Тmin Tmax R s Состояние
почвы
15 22.09.18 320 (СЗ) 20000 м    ясно 
+15.5 +2.7 42 +17  1019.7  0.9  730  278    +18.6       
18 22.09.18 тихо ()   20000 м    ясно 
+11.4 +1.5 51 +11  1021.2  0.6  730  282    +18.6       
21 22.09.18 тихо ()   20000 м    ясно 
+9.5 +0.6 54 +10  1021.2  -0.1  730  284           
00 23.09.18 360 (С) 20000 м    ясно 
+7 -0.2 60 +8  1021.7  -0.1  730  287           
03 23.09.18 тихо ()   20000 м    ясно 
+6.3 +0.1 64 +6  1022.2  0.4  730  288           
06 23.09.18 тихо ()   20000 м    ясно 
+10.6 +1.9 55 +11  1021.8  0.4  731  283  +5.8         
09 23.09.18 тихо ()   20000 м    ясно 
+19.4 +7.3 45 +19  1019.6  -0.8  730  273           
12 23.09.18 тихо ()   20000 м    9/9 600 м 
[Cu hum]
+21.4 +7 39 +21  1019.1  -0.3  730  272           
15 23.09.18 тихо ()   20000 м    9/9 1000 м 
[Cu hum]
+20 +7 43 +20  1019.5  0.3  730  273    +22       
18 23.09.18 тихо ()   20000 м    9/0 средняя 
[Ac und]
+18 +6.5 47 +18  1020  0.2  730  275    +22       
21 23.09.18 тихо ()   20000 м    9/0 средняя 
[Ac und]
+15.8 +6.4 54 +16  1020.3  730  277           
00 24.09.18 тихо ()   20000 м    9/0 верхняя 
[Ci ing]
+13.2 +4.8 57 +13  1020.4  -0.4  730  280           
03 24.09.18 090 (В) 20000 м    ясно 
+13 +3.6 53 +14  1020.4  730  280           
06 24.09.18 160 (Ю) 20000 м    9/0 средняя 
[Ac trans]
+19.4 +7.3 45 +20  1020.9  1.5  731  274  +12.4         
09 24.09.18 230 (ЮЗ) 20000 м    9/9 600 м кучево-дожд. 
[Cb cap]
+21.4 +7.8 42 +21  1020.3  0.4  731  272           
12 24.09.18 230 (ЮЗ) 20000 м    9/0 средняя 
[Ac trans]
+22 +8.6 42 +22  1019.3  -0.5  730  271           
15 24.09.18 230 (ЮЗ) 20000 м    9/9 600 м кучево-дожд. 
[Cb cap]
+20.1 +7 43 +20  1020.3  0.4  731  273    +22.6       
18 24.09.18 тихо ()   20000 м    9/9 600 м кучево-дожд. 
[Cb cap]
+18.4 +7.1 48 +18  1020.5  -0.1  731  275    +22.6       
21 24.09.18 110 (В) 20000 м    9/9 600 м кучево-дожд. 
[Cb cap]
+16 +6.1 52 +16  1020.8  731  277           
00 25.09.18 110 (В) 20000 м    9/9 600 м кучево-дожд. 
[Cb cap]
+14.2 +5.8 57 +14  1020.9  -0.2  731  279           
03 25.09.18 110 (В) 20000 м    9/0 верхняя 
[Ci ing]
+11.6 +4 60 +11  1021.8  0.5  731  282           
06 25.09.18 110 (В) 20000 м    9/0 средняя 
[Ac trans]
+15.8 +3.4 43 +16  1021.9  0.7  731  278  +10.8         
09 25.09.18 120 (ЮВ) 20000 м    9/0 средняя 
[Ac trans]
+19.6 +5.9 41 +20  1020.5  -0.7  731  274           
12 25.09.18 200 (Ю) 20000 м    9/0 средняя, верхняя 
[Ac trans|Ci sp]
+21.4 +7 39 +21  1019.8  -0.6  730  272           
15 25.09.18 160 (Ю) 20000 м    ясно 
+18.1 +4.5 41 +19  1020.6  0.4  731  275    +21.9       
Время (UTC), дата Ветер
(°,м/с) 
Видим.   Явления Облачность Т
(°С)
Тd
(°С)
f(%) Тe
(°С)
Pmin
(гПа)
dP
(гПа)
Po
(мм)
O2
(г/м3)
Тmin Tmax R s Состояние
почвы

Для получения пояснительной информации подведите курсор к названию столбца.

ПОГОДА в Мугалжаре - архив

Всё, что Вы хотите узнать о погоде в Мугалжаре - удобно и подробно!

Выберите нужную дату (начиная с 1 января 2015* года) и нажмите кнопку "Найти".
Будут отображены архивные сводки погоды по пункту Мугалжар, начиная с указанной даты.


Отображать данные в формате CSV (для использования в таблицах Excel)


Внимание! Наш архив погоды предназначен исключительно для личного некоммерческого использования в познавательных целях. Если Вам необходимы официальные справки о состоянии погоды (для производственных, юридических, коммерческих и т.п. целей), обращайтесь в органы Росгидромета.

*Примечание: данная дата относится к архиву по метеостанциям СССР (Россия, СНГ, Балтия).
Архив по метеостанциям Зарубежной Европы и Азии (кроме Китая) хранится 10 дней, по другим регионам земного шара (Китай, Африка, Америка, Австралия, Океания) - 1 день.

Мугалжар - район местоположения метеостанции


Название, широта, долгота, высота метеостанции:
Мугалжар (Мугоджарская) 48.6°ш. 58.5°д. 398 м над ур. моря [Казахстан]

Дополнительная информация

В oтличие oт бoльшинства пoгoдных сайтoв мы публикуем пoдрoбную метеoинфoрмацию в детальнoм прoфессиoнальнoм фoрмате.

Характеристики температуры и влажнoсти вoздуха измеряются на высoте 2 м в тени вдали oт зданий и деревьев.
Скoрoсть ветра измеряется на высoте 10 м (на урoвне рoста челoвека скoрoсть ветра ниже в 1.5-2 раза). Если метеoстанция нахoдится в гoрoде или в лесу, тo скoрoсть ветра занижена на 2-4 м/с пo сравнению с oткрытым местoм. Скoрoсть ветра над акватoриями крупных рек и oзёр, а также на вершинах хoлмoв на 2-5 м/с выше, чем в oбычных услoвиях.
Атмoсфернoе давление в разных тoчках местнoсти мoжет значительнo oтличаться oт давления на метеoстанции, в зависимoсти oт услoвий рельефа (при пoдъёме на 10 м давление пoнижается примернo на 1 мм рт.ст.).